sat.trackr.live / text

‹ back to catalog

FLOCK 4Q-30

NORAD 58286 · 2023-174AG

PAYLOAD ACTIVE UNKNOWN

§ Identity

Operator
Country
US
Launch date
2023-11-11
Launch site
AFWTR
Launch vehicle
Mass (kg)
RCS (m²)

Purposes: earth_obs

External: N2YO · Heavens-Above · Gunter

§ Orbital elements

Epoch: 2026-05-25T03:28:20.726976Z

Period
92.55 min
Inclination
97.3930°
Eccentricity
0.0005130
Mean motion
15.55991675 rev/d
Perigee alt
395.8 km
Apogee alt
402.7 km
Semi-major
6,777.4 km
B*
5.2197e-4
RAAN
236.7024°
Arg perigee
209.9650°
Mean anomaly
150.1311°
Rev number
14,221

§ Raw data

FLOCK 4Q-301 58286U 23174AG  26145.14468434  .00036314  00000+0  52197-3 0  99912 58286  97.3930 236.7024 0005130 209.9650 150.1311 15.55991675142211

JSON: /api/v1/satellites/58286 · /tle

For live sub-satellite position, see the globe view (requires WebGL).

§ Visibility from observer

Set your observer location to see the next 7 days of passes ≥ 10°. The values pass through the URL so the page stays shareable.

No JS? Fill the form by hand. The geolocation button needs JavaScript.